• In United Kingdom
  • List of Countries
  • For 7 days
  • Water Temperature
  • Satellite Maps
  • Weather Map
  • Weather Widgets
  • user-avatar
    Login

    Hourly Weather Marrakesh

    Today, 23 October, Monday

    Time Temperature Precipitation Wind Pressure Humidity
    00:00 +24°C° 0 mm 1 mps 725 mmHg 56%
    01:00 +24°C° 0 mm 1 mps 725 mmHg 58%
    02:00 +23°C° 0 mm 1 mps 724 mmHg 60%
    03:00 +23°C° 0 mm 1 mps 724 mmHg 60%
    04:00 +23°C° 0 mm 1 mps 724 mmHg 60%
    05:00 +23°C° 0 mm 1 mps 724 mmHg 60%
    06:00 +24°C° 0 mm 1 mps 724 mmHg 53%
    07:00 +26°C° 0 mm 1 mps 725 mmHg 47%
    08:00 +27°C° 0 mm 1 mps 725 mmHg 41%
    09:00 +29°C° 0 mm 1 mps 725 mmHg 37%
    10:00 +30°C° 0 mm 1 mps 725 mmHg 32%
    11:00 +31°C° 0 mm 2 mps 725 mmHg 28%
    12:00 +32°C° 0 mm 2 mps 725 mmHg 27%
    13:00 +34°C° 0 mm 2 mps 724 mmHg 25%
    14:00 +34°C° 0 mm 3 mps 724 mmHg 24%
    15:00 +33°C° 0 mm 3 mps 724 mmHg 26%
    16:00 +32°C° 0 mm 2 mps 724 mmHg 27%
    17:00 +31°C° 0 mm 2 mps 724 mmHg 29%
    18:00 +30°C° 0 mm 2 mps 724 mmHg 33%
    19:00 +29°C° 0 mm 2 mps 725 mmHg 36%
    20:00 +28°C° 0 mm 2 mps 725 mmHg 39%
    21:00 +27°C° 0 mm 1 mps 725 mmHg 41%
    22:00 +27°C° 0 mm 1 mps 725 mmHg 43%
    23:00 +26°C° 0 mm 1 mps 725 mmHg 45%

    Tomorrow, 24 October, Tuesday

    Time Temperature Precipitation Wind Pressure Humidity
    00:00 +26°C° 0 mm 1 mps 725 mmHg 46%
    01:00 +23°C° 0 mm 0 mps 724 mmHg 47%
    02:00 +23°C° 0 mm 0 mps 724 mmHg 48%
    03:00 +22°C° 0 mm 0 mps 724 mmHg 49%
    04:00 +22°C° 0 mm 0 mps 724 mmHg 49%
    05:00 +22°C° 0 mm 0 mps 724 mmHg 49%
    06:00 +23°C° 0 mm 0 mps 724 mmHg 44%
    07:00 +25°C° 0 mm 0 mps 725 mmHg 39%
    08:00 +27°C° 0 mm 0 mps 726 mmHg 34%
    09:00 +30°C° 0 mm 1 mps 725 mmHg 30%
    10:00 +31°C° 0 mm 1 mps 725 mmHg 26%
    11:00 +32°C° 0 mm 1 mps 725 mmHg 22%
    12:00 +32°C° 0 mm 2 mps 725 mmHg 21%
    13:00 +34°C° 0 mm 2 mps 725 mmHg 19%
    14:00 +34°C° 0 mm 2 mps 724 mmHg 17%
    15:00 +32°C° 0 mm 2 mps 724 mmHg 18%
    16:00 +32°C° 0 mm 2 mps 725 mmHg 19%
    17:00 +31°C° 0 mm 2 mps 725 mmHg 20%
    18:00 +30°C° 0 mm 2 mps 725 mmHg 22%
    19:00 +28°C° 0 mm 2 mps 725 mmHg 25%
    20:00 +27°C° 0 mm 1 mps 726 mmHg 28%
    21:00 +27°C° 0 mm 1 mps 726 mmHg 29%
    22:00 +26°C° 0 mm 1 mps 726 mmHg 30%
    23:00 +25°C° 0 mm 1 mps 725 mmHg 31%

    Day after tomorrow, 25 October, Wednesday

    Time Temperature Precipitation Wind Pressure Humidity
    00:00 +25°C° 0 mm 1 mps 725 mmHg 31%
    01:00 +25°C° 0 mm 1 mps 725 mmHg 32%
    02:00 +24°C° 0 mm 1 mps 725 mmHg 32%
    03:00 +24°C° 0 mm 1 mps 725 mmHg 33%
    04:00 +23°C° 0 mm 1 mps 725 mmHg 33%
    05:00 +23°C° 0 mm 1 mps 724 mmHg 34%
    06:00 +25°C° 0 mm 1 mps 725 mmHg 30%
    07:00 +27°C° 0 mm 1 mps 726 mmHg 27%
    08:00 +29°C° 0 mm 1 mps 726 mmHg 24%
    09:00 +30°C° 0 mm 1 mps 726 mmHg 22%
    10:00 +31°C° 0 mm 2 mps 726 mmHg 21%
    11:00 +32°C° 0 mm 2 mps 726 mmHg 20%
    12:00 +32°C° 0 mm 2 mps 726 mmHg 19%
    13:00 +34°C° 0 mm 2 mps 725 mmHg 19%
    14:00 +34°C° 0 mm 3 mps 725 mmHg 18%
    15:00 +32°C° 0 mm 2 mps 725 mmHg 19%
    16:00 +32°C° 0 mm 2 mps 725 mmHg 21%
    17:00 +31°C° 0 mm 2 mps 725 mmHg 22%
    18:00 +30°C° 0 mm 2 mps 726 mmHg 23%
    19:00 +29°C° 0 mm 2 mps 726 mmHg 25%
    20:00 +28°C° 0 mm 2 mps 727 mmHg 27%
    21:00 +28°C° 0 mm 2 mps 727 mmHg 29%
    22:00 +27°C° 0 mm 1 mps 727 mmHg 30%
    23:00 +26°C° 0 mm 1 mps 727 mmHg 31%

    26 October, Thursday

    Time Temperature Precipitation Wind Pressure Humidity
    00:00 +26°C° 0 mm 1 mps 726 mmHg 32%
    01:00 +25°C° 0 mm 1 mps 726 mmHg 32%
    02:00 +25°C° 0 mm 1 mps 726 mmHg 33%
    03:00 +25°C° 0 mm 1 mps 726 mmHg 33%
    04:00 +24°C° 0 mm 1 mps 726 mmHg 33%
    05:00 +24°C° 0 mm 2 mps 726 mmHg 33%
    06:00 +26°C° 0 mm 1 mps 727 mmHg 30%
    07:00 +27°C° 0 mm 1 mps 727 mmHg 27%
    08:00 +29°C° 0 mm 1 mps 727 mmHg 24%
    09:00 +30°C° 0 mm 1 mps 727 mmHg 22%
    10:00 +31°C° 0 mm 1 mps 727 mmHg 20%
    11:00 +32°C° 0 mm 2 mps 727 mmHg 19%
    12:00 +32°C° 0 mm 2 mps 727 mmHg 18%
    13:00 +32°C° 0 mm 2 mps 726 mmHg 18%
    14:00 +34°C° 0 mm 2 mps 726 mmHg 17%
    15:00 +33°C° 0 mm 3 mps 726 mmHg 18%
    16:00 +31°C° 0 mm 3 mps 726 mmHg 20%
    17:00 +30°C° 0 mm 4 mps 726 mmHg 21%
    18:00 +29°C° 0 mm 4 mps 727 mmHg 24%
    19:00 +28°C° 0 mm 3 mps 727 mmHg 27%
    20:00 +27°C° 0 mm 3 mps 727 mmHg 30%
    21:00 +26°C° 0 mm 2 mps 727 mmHg 31%
    22:00 +25°C° 0 mm 2 mps 727 mmHg 32%
    23:00 +25°C° 0 mm 1 mps 727 mmHg 33%

    27 October, Friday

    Time Temperature Precipitation Wind Pressure Humidity
    00:00 +24°C° 0 mm 1 mps 727 mmHg 34%
    01:00 +24°C° 0 mm 1 mps 727 mmHg 34%
    02:00 +23°C° 0 mm 1 mps 726 mmHg 35%
    03:00 +23°C° 0 mm 1 mps 727 mmHg 34%
    04:00 +23°C° 0 mm 1 mps 727 mmHg 34%
    05:00 +22°C° 0 mm 1 mps 727 mmHg 34%
    06:00 +24°C° 0 mm 1 mps 727 mmHg 30%
    07:00 +26°C° 0 mm 1 mps 728 mmHg 26%
    08:00 +27°C° 0 mm 1 mps 728 mmHg 22%
    09:00 +28°C° 0 mm 1 mps 728 mmHg 20%
    10:00 +29°C° 0 mm 1 mps 728 mmHg 19%
    11:00 +31°C° 0 mm 1 mps 728 mmHg 17%
    12:00 +31°C° 0 mm 1 mps 728 mmHg 17%
    13:00 +31°C° 0 mm 2 mps 727 mmHg 17%
    14:00 +32°C° 0 mm 2 mps 727 mmHg 16%
    15:00 +31°C° 0 mm 2 mps 727 mmHg 18%
    16:00 +30°C° 0 mm 2 mps 727 mmHg 19%
    17:00 +29°C° 0 mm 2 mps 726 mmHg 21%
    18:00 +28°C° 0 mm 2 mps 727 mmHg 24%
    19:00 +27°C° 0 mm 2 mps 727 mmHg 27%
    20:00 +26°C° 0 mm 2 mps 727 mmHg 30%
    21:00 +26°C° 0 mm 2 mps 726 mmHg 32%
    22:00 +25°C° 0 mm 1 mps 726 mmHg 34%
    23:00 +25°C° 0 mm 1 mps 726 mmHg 36%

    28 October, Saturday

    Time Temperature Precipitation Wind Pressure Humidity
    00:00 +24°C° 0 mm 1 mps 725 mmHg 37%
    01:00 +23°C° 0 mm 1 mps 725 mmHg 39%
    02:00 +23°C° 0 mm 1 mps 725 mmHg 40%
    03:00 +23°C° 0 mm 1 mps 725 mmHg 41%
    04:00 +20°C° 0 mm 0 mps 724 mmHg 41%
    05:00 +20°C° 0 mm 0 mps 724 mmHg 42%
    06:00 +22°C° 0 mm 0 mps 725 mmHg 37%
    07:00 +23°C° 0 mm 0 mps 725 mmHg 32%
    08:00 +25°C° 0 mm 0 mps 725 mmHg 27%
    09:00 +28°C° 0 mm 1 mps 725 mmHg 24%
    10:00 +30°C° 0 mm 1 mps 725 mmHg 21%
    11:00 +31°C° 0 mm 1 mps 725 mmHg 17%
    12:00 +31°C° 0 mm 1 mps 724 mmHg 17%
    13:00 +32°C° 0 mm 2 mps 724 mmHg 16%
    14:00 +32°C° 0 mm 2 mps 724 mmHg 15%
    15:00 +31°C° 0 mm 2 mps 724 mmHg 17%
    16:00 +30°C° 0 mm 3 mps 724 mmHg 20%
    17:00 +29°C° 0 mm 3 mps 724 mmHg 22%
    18:00 +28°C° 0 mm 3 mps 724 mmHg 25%
    19:00 +27°C° 0 mm 2 mps 724 mmHg 29%
    20:00 +26°C° 0 mm 2 mps 725 mmHg 32%
    21:00 +25°C° 0 mm 2 mps 724 mmHg 34%
    22:00 +25°C° 0 mm 1 mps 724 mmHg 36%
    23:00 +24°C° 0 mm 1 mps 724 mmHg 39%
    Show more